Location: Unspecified
(43.8044°N, 11.0278°E)
Time: 15:24:27
(UTC+02:00)

CZ-3 Stage 3 - Visible Passes

Search period start: 31 July 2015 00:00
Search period end: 10 August 2015 00:00
Orbit: 435 x 34791 km, 31.0° (Epoch: 29 July)

Date Brightness Start Highest point End Pass type
(mag) Time Alt. Az. Time Alt. Az. Time Alt. Az.
31 Jul 6.4 04:26:54 17° SW 04:55:49 65° SSE 13:39:59 10° SSE visible
01 Aug 6.6 00:59:44 17° SE 01:08:23 22° ESE 09:40:05 10° ESE visible
03 Aug 6.4 04:21:50 19° SW 04:50:28 66° SSE 13:33:49 10° S visible
04 Aug 6.6 00:54:41 19° SE 01:02:22 23° ESE 09:34:52 10° ESE visible
06 Aug 6.4 04:16:47 20° SW 04:45:09 66° SSE 13:27:36 10° S visible
07 Aug 6.6 00:49:37 21° SE 00:56:23 24° ESE 09:29:36 10° SE visible
09 Aug 6.4 04:11:43 22° SW 04:39:53 67° SSE 13:21:19 10° S visible
